Time,TemperatureF,DewpointF,PressureIn,WindDirection,WindDirectionDegrees,WindSpeedMPH,WindSpeedGustMPH,Humidity,HourlyPrecipIn,Conditions,Clouds,dailyrainin,SoftwareType,DateUTC
2013-01-06 00:00:00,41.5,38.2,30.32,ENE,68,0.0,0.0,88,0.00,,---,0.00,VWS V14.01,2013-01-06 05:00:00,
2013-01-06 00:05:00,41.5,38.5,30.32,ENE,68,0.0,0.0,89,0.00,,---,0.00,VWS V14.01,2013-01-06 05:05:00,
2013-01-06 00:10:00,41.5,38.5,30.32,ENE,68,0.0,0.0,89,0.00,,---,0.00,VWS V14.01,2013-01-06 05:10:00,
2013-01-06 00:15:00,41.5,39.1,30.31,ENE,68,0.0,0.0,91,0.00,,---,0.00,VWS V14.01,2013-01-06 05:15:00,
2013-01-06 00:20:00,41.5,39.1,30.31,ENE,68,0.0,0.0,91,0.00,,---,0.00,VWS V14.01,2013-01-06 05:20:00,
2013-01-06 00:25:00,41.3,38.9,30.31,ENE,68,0.0,0.0,91,0.00,,---,0.00,VWS V14.01,2013-01-06 05:25:00,
2013-01-06 00:30:00,41.3,38.9,30.31,ENE,68,0.0,0.0,91,0.00,,---,0.00,VWS V14.01,2013-01-06 05:30:00,
2013-01-06 00:35:00,41.2,38.8,30.31,ENE,68,0.0,0.0,91,0.00,,---,0.00,VWS V14.01,2013-01-06 05:35:00,
2013-01-06 00:40:00,41.2,38.8,30.31,ENE,68,0.0,0.0,91,0.00,,---,0.00,VWS V14.01,2013-01-06 05:40:00,
2013-01-06 00:45:00,41.2,38.8,30.30,ENE,68,0.0,0.0,91,0.00,,---,0.00,VWS V14.01,2013-01-06 05:45:00,
2013-01-06 00:50:00,41.2,38.8,30.30,ENE,68,0.0,0.0,91,0.00,,---,0.00,VWS V14.01,2013-01-06 05:50:00,
2013-01-06 00:55:00,41.2,38.8,30.30,ENE,68,0.0,0.0,91,0.00,,---,0.00,VWS V14.01,2013-01-06 05:55:00,
2013-01-06 01:00:00,41.2,38.8,30.30,ENE,68,0.0,0.0,91,0.00,,---,0.00,VWS V14.01,2013-01-06 06:00:00,
2013-01-06 01:05:00,41.2,38.8,30.30,ENE,68,0.0,0.0,91,0.00,,---,0.00,VWS V14.01,2013-01-06 06:05:00,
2013-01-06 01:10:00,41.2,38.8,30.30,ENE,68,0.0,0.0,91,0.00,,---,0.00,VWS V14.01,2013-01-06 06:10:00,
2013-01-06 01:15:00,41.2,38.8,30.30,ENE,68,0.0,0.0,91,0.00,,---,0.00,VWS V14.01,2013-01-06 06:15:00,
2013-01-06 01:20:00,41.2,38.8,30.30,ENE,68,0.0,0.0,91,0.00,,---,0.00,VWS V14.01,2013-01-06 06:20:00,
2013-01-06 01:25:00,41.2,38.8,30.30,ENE,68,0.0,0.0,91,0.00,,---,0.00,VWS V14.01,2013-01-06 06:25:00,
2013-01-06 01:30:00,41.2,38.8,30.31,ENE,68,0.0,0.0,91,0.00,,---,0.00,VWS V14.01,2013-01-06 06:30:00,
2013-01-06 01:35:00,41.2,38.8,30.31,ENE,68,0.0,0.0,91,0.00,,---,0.00,VWS V14.01,2013-01-06 06:35:00,
2013-01-06 01:40:00,41.2,38.8,30.31,ENE,68,0.0,0.0,91,0.00,,---,0.00,VWS V14.01,2013-01-06 06:40:00,
2013-01-06 01:45:00,41.2,38.8,30.31,ENE,68,0.0,0.0,91,0.00,,---,0.00,VWS V14.01,2013-01-06 06:45:00,
2013-01-06 01:50:00,41.1,38.7,30.31,ENE,68,0.0,0.0,91,0.00,,---,0.00,VWS V14.01,2013-01-06 06:50:00,
2013-01-06 01:55:00,41.1,38.7,30.31,ENE,68,0.0,0.0,91,0.00,,---,0.00,VWS V14.01,2013-01-06 06:55:00,
2013-01-06 02:00:00,40.9,38.5,30.31,ENE,68,0.0,0.0,91,0.00,,---,0.00,VWS V14.01,2013-01-06 07:00:00,
2013-01-06 02:05:00,40.9,38.5,30.31,ENE,68,0.0,0.0,91,0.00,,---,0.00,VWS V14.01,2013-01-06 07:05:00,
2013-01-06 02:10:00,40.9,38.5,30.31,ENE,68,0.0,0.0,91,0.00,,---,0.00,VWS V14.01,2013-01-06 07:10:00,
2013-01-06 02:15:00,40.9,38.5,30.31,ENE,68,0.0,0.0,91,0.00,,---,0.00,VWS V14.01,2013-01-06 07:15:00,
2013-01-06 02:20:00,40.8,38.4,30.31,ENE,68,0.0,0.0,91,0.00,,---,0.00,VWS V14.01,2013-01-06 07:20:00,
2013-01-06 02:25:00,40.9,38.5,30.31,ENE,68,0.0,0.0,91,0.00,,---,0.00,VWS V14.01,2013-01-06 07:25:00,
2013-01-06 02:30:00,40.9,38.5,30.32,ENE,68,0.0,0.0,91,0.00,,---,0.00,VWS V14.01,2013-01-06 07:30:00,
2013-01-06 02:35:00,40.8,38.4,30.32,ENE,68,0.0,0.0,91,0.00,,---,0.00,VWS V14.01,2013-01-06 07:35:00,
2013-01-06 02:40:00,40.9,38.5,30.32,ENE,68,0.0,0.0,91,0.00,,---,0.00,VWS V14.01,2013-01-06 07:40:00,
2013-01-06 02:45:00,40.9,38.5,30.31,ENE,68,0.0,0.0,91,0.00,,---,0.00,VWS V14.01,2013-01-06 07:45:00,
2013-01-06 02:50:00,40.9,38.5,30.31,ENE,68,0.0,0.0,91,0.00,,---,0.00,VWS V14.01,2013-01-06 07:50:00,
2013-01-06 02:55:00,40.9,38.5,30.31,ENE,68,0.0,0.0,91,0.00,,---,0.00,VWS V14.01,2013-01-06 07:55:00,
2013-01-06 03:00:00,40.9,38.5,30.31,ENE,68,0.0,0.0,91,0.00,,---,0.00,VWS V14.01,2013-01-06 08:00:00,
2013-01-06 03:05:00,40.9,38.5,30.31,ENE,68,0.0,0.0,91,0.00,,---,0.00,VWS V14.01,2013-01-06 08:05:00,
2013-01-06 03:10:00,40.9,38.5,30.31,ENE,68,0.0,0.0,91,0.00,,---,0.00,VWS V14.01,2013-01-06 08:10:00,
2013-01-06 03:15:00,41.1,38.7,30.30,ENE,68,0.0,0.0,91,0.00,,---,0.00,VWS V14.01,2013-01-06 08:15:00,
2013-01-06 03:20:00,41.1,38.7,30.30,ENE,68,0.0,0.0,91,0.00,,---,0.00,VWS V14.01,2013-01-06 08:20:00,
2013-01-06 03:25:00,41.1,38.7,30.30,ENE,68,0.0,0.0,91,0.00,,---,0.00,VWS V14.01,2013-01-06 08:25:00,
2013-01-06 03:30:00,41.1,38.7,30.30,ENE,68,0.0,0.0,91,0.00,,---,0.00,VWS V14.01,2013-01-06 08:30:00,
2013-01-06 03:35:00,40.9,38.5,30.30,ENE,68,0.0,0.0,91,0.00,,---,0.00,VWS V14.01,2013-01-06 08:35:00,
2013-01-06 03:40:00,40.9,38.5,30.30,ENE,68,0.0,0.0,91,0.00,,---,0.00,VWS V14.01,2013-01-06 08:40:00,
2013-01-06 03:45:00,40.9,38.5,30.29,ENE,68,0.0,0.0,91,0.00,,---,0.00,VWS V14.01,2013-01-06 08:45:00,
2013-01-06 03:50:00,40.9,38.5,30.29,ENE,68,0.0,0.0,91,0.00,,---,0.00,VWS V14.01,2013-01-06 08:50:00,
2013-01-06 03:55:00,40.8,38.4,30.29,ENE,68,0.0,0.0,91,0.00,,---,0.00,VWS V14.01,2013-01-06 08:55:00,
2013-01-06 04:00:00,40.8,38.4,30.28,ENE,68,0.0,0.0,91,0.00,,---,0.00,VWS V14.01,2013-01-06 09:00:00,
2013-01-06 04:05:00,40.8,38.4,30.28,ENE,68,0.0,0.0,91,0.00,,---,0.00,VWS V14.01,2013-01-06 09:05:00,
2013-01-06 04:10:00,40.8,38.4,30.28,ENE,68,0.0,0.0,91,0.00,,---,0.00,VWS V14.01,2013-01-06 09:10:00,
2013-01-06 04:15:00,40.8,38.4,30.27,ENE,68,0.0,0.0,91,0.00,,---,0.00,VWS V14.01,2013-01-06 09:15:00,
2013-01-06 04:20:00,40.8,38.4,30.27,ENE,68,0.0,0.0,91,0.00,,---,0.00,VWS V14.01,2013-01-06 09:20:00,
2013-01-06 04:25:00,40.8,38.4,30.27,ENE,68,0.0,0.0,91,0.00,,---,0.00,VWS V14.01,2013-01-06 09:25:00,
2013-01-06 04:30:00,40.8,38.4,30.26,ENE,68,0.0,0.0,91,0.00,,---,0.00,VWS V14.01,2013-01-06 09:30:00,
2013-01-06 04:35:00,40.8,38.4,30.26,ENE,68,0.0,0.0,91,0.00,,---,0.00,VWS V14.01,2013-01-06 09:35:00,
2013-01-06 04:40:00,40.8,38.4,30.26,ENE,68,0.0,0.0,91,0.00,,---,0.00,VWS V14.01,2013-01-06 09:40:00,
2013-01-06 04:45:00,40.8,38.4,30.26,ENE,68,0.0,0.0,91,0.00,,---,0.00,VWS V14.01,2013-01-06 09:45:00,
2013-01-06 04:50:00,40.9,38.5,30.26,ENE,68,0.0,0.0,91,0.00,,---,0.00,VWS V14.01,2013-01-06 09:50:00,
2013-01-06 04:55:00,40.9,38.5,30.26,ENE,68,0.0,0.0,91,0.00,,---,0.00,VWS V14.01,2013-01-06 09:55:00,
2013-01-06 05:00:00,40.9,38.5,30.25,ENE,68,0.0,0.0,91,0.00,,---,0.00,VWS V14.01,2013-01-06 10:00:00,
2013-01-06 05:05:00,40.9,38.5,30.25,ENE,68,0.0,0.0,91,0.00,,---,0.00,VWS V14.01,2013-01-06 10:05:00,
2013-01-06 05:10:00,41.1,38.7,30.25,ENE,68,0.0,0.0,91,0.00,,---,0.00,VWS V14.01,2013-01-06 10:10:00,
2013-01-06 05:15:00,41.1,38.7,30.25,ENE,68,0.0,0.0,91,0.00,,---,0.00,VWS V14.01,2013-01-06 10:15:00,
2013-01-06 05:20:00,41.1,38.7,30.25,ENE,68,0.0,0.0,91,0.00,,---,0.00,VWS V14.01,2013-01-06 10:20:00,
2013-01-06 05:25:00,41.1,38.7,30.25,ENE,68,0.0,0.0,91,0.00,,---,0.00,VWS V14.01,2013-01-06 10:25:00,
2013-01-06 05:30:00,41.2,38.8,30.25,ENE,68,0.0,0.0,91,0.00,,---,0.00,VWS V14.01,2013-01-06 10:30:00,
2013-01-06 05:35:00,41.2,38.8,30.25,ENE,68,0.0,0.0,91,0.00,,---,0.00,VWS V14.01,2013-01-06 10:35:00,
2013-01-06 05:40:00,41.2,38.8,30.25,ENE,68,0.0,0.0,91,0.00,,---,0.00,VWS V14.01,2013-01-06 10:40:00,
2013-01-06 05:45:00,41.2,38.8,30.25,ENE,68,0.0,0.0,91,0.00,,---,0.00,VWS V14.01,2013-01-06 10:45:00,
2013-01-06 05:50:00,41.2,38.8,30.25,ENE,68,0.0,0.0,91,0.00,,---,0.00,VWS V14.01,2013-01-06 10:50:00,
2013-01-06 05:55:00,41.2,38.8,30.25,ENE,68,0.0,0.0,91,0.00,,---,0.00,VWS V14.01,2013-01-06 10:55:00,
2013-01-06 06:00:00,41.3,38.9,30.25,ENE,68,0.0,0.0,91,0.00,,---,0.00,VWS V14.01,2013-01-06 11:00:00,
2013-01-06 06:05:00,41.2,38.8,30.25,ENE,68,0.0,0.0,91,0.00,,---,0.00,VWS V14.01,2013-01-06 11:05:00,
2013-01-06 06:10:00,41.3,38.9,30.25,ENE,68,0.0,0.0,91,0.00,,---,0.00,VWS V14.01,2013-01-06 11:10:00,
2013-01-06 06:15:00,41.3,38.9,30.25,ENE,68,0.0,0.0,91,0.00,,---,0.00,VWS V14.01,2013-01-06 11:15:00,
2013-01-06 06:20:00,41.3,38.9,30.25,ENE,68,0.0,0.0,91,0.00,,---,0.00,VWS V14.01,2013-01-06 11:20:00,
2013-01-06 06:25:00,41.3,38.9,30.25,ENE,68,0.0,0.0,91,0.00,,---,0.00,VWS V14.01,2013-01-06 11:25:00,
2013-01-06 06:30:00,41.3,38.9,30.25,ENE,68,0.0,0.0,91,0.00,,---,0.00,VWS V14.01,2013-01-06 11:30:00,
2013-01-06 06:35:00,41.4,39.0,30.25,ENE,68,0.0,0.0,91,0.00,,---,0.00,VWS V14.01,2013-01-06 11:35:00,
2013-01-06 06:40:00,41.5,39.1,30.25,ENE,68,0.0,0.0,91,0.00,,---,0.00,VWS V14.01,2013-01-06 11:40:00,
2013-01-06 06:45:00,41.5,39.1,30.25,ENE,68,0.0,0.0,91,0.00,,---,0.00,VWS V14.01,2013-01-06 11:45:00,
2013-01-06 06:50:00,41.5,39.1,30.25,ENE,68,0.0,0.0,91,0.00,,---,0.00,VWS V14.01,2013-01-06 11:50:00,
2013-01-06 06:55:00,41.5,39.1,30.25,ENE,68,0.0,0.0,91,0.00,,---,0.00,VWS V14.01,2013-01-06 11:55:00,
2013-01-06 07:00:00,41.5,39.1,30.25,ENE,68,0.0,0.0,91,0.00,,---,0.00,VWS V14.01,2013-01-06 12:00:00,
2013-01-06 07:05:00,41.5,39.1,30.25,ENE,68,0.0,0.0,91,0.00,,---,0.00,VWS V14.01,2013-01-06 12:05:00,
2013-01-06 07:10:00,41.5,39.1,30.25,ENE,68,0.0,0.0,91,0.00,,---,0.00,VWS V14.01,2013-01-06 12:10:00,
2013-01-06 07:15:00,41.5,39.1,30.26,ENE,68,0.0,0.0,91,0.00,,---,0.00,VWS V14.01,2013-01-06 12:15:00,
2013-01-06 07:20:00,41.5,39.1,30.26,ENE,68,0.0,0.0,91,0.00,,---,0.00,VWS V14.01,2013-01-06 12:20:00,
2013-01-06 07:25:00,41.5,39.1,30.26,ENE,68,0.0,0.0,91,0.00,,---,0.00,VWS V14.01,2013-01-06 12:25:00,
2013-01-06 07:30:00,41.6,39.2,30.26,ENE,68,0.0,0.0,91,0.00,,---,0.00,VWS V14.01,2013-01-06 12:30:00,
2013-01-06 07:35:00,41.6,39.2,30.26,ENE,68,0.0,0.0,91,0.00,,---,0.00,VWS V14.01,2013-01-06 12:35:00,
2013-01-06 07:40:00,41.6,39.2,30.26,ENE,68,0.0,0.0,91,0.00,,---,0.00,VWS V14.01,2013-01-06 12:40:00,
2013-01-06 07:45:00,41.6,39.2,30.27,ENE,68,0.0,0.0,91,0.00,,---,0.00,VWS V14.01,2013-01-06 12:45:00,
2013-01-06 07:50:00,41.6,39.2,30.27,ENE,68,0.0,0.0,91,0.00,,---,0.00,VWS V14.01,2013-01-06 12:50:00,
2013-01-06 07:55:00,41.8,39.4,30.27,ENE,68,0.0,0.0,91,0.00,,---,0.00,VWS V14.01,2013-01-06 12:55:00,
2013-01-06 08:00:00,41.8,39.4,30.27,ENE,68,0.0,0.0,91,0.00,,---,0.00,VWS V14.01,2013-01-06 13:00:00,
2013-01-06 08:05:00,41.8,39.4,30.27,ENE,68,0.0,0.0,91,0.00,,---,0.00,VWS V14.01,2013-01-06 13:05:00,
2013-01-06 08:10:00,41.8,39.4,30.27,ENE,68,0.0,0.0,91,0.00,,---,0.00,VWS V14.01,2013-01-06 13:10:00,
2013-01-06 08:15:00,41.9,39.5,30.27,ENE,68,0.0,0.0,91,0.00,,---,0.00,VWS V14.01,2013-01-06 13:15:00,
2013-01-06 08:20:00,41.9,39.5,30.27,ENE,68,0.0,0.0,91,0.00,,---,0.00,VWS V14.01,2013-01-06 13:20:00,
2013-01-06 08:25:00,41.9,39.5,30.27,ENE,68,0.0,0.0,91,0.00,,---,0.00,VWS V14.01,2013-01-06 13:25:00,
2013-01-06 08:30:00,42.1,39.7,30.28,ENE,68,0.0,0.0,91,0.00,,---,0.00,VWS V14.01,2013-01-06 13:30:00,
2013-01-06 08:35:00,42.2,39.2,30.28,ENE,68,0.0,0.0,89,0.00,,---,0.00,VWS V14.01,2013-01-06 13:35:00,
2013-01-06 08:40:00,42.4,38.5,30.28,ENE,68,0.0,0.0,86,0.00,,---,0.00,VWS V14.01,2013-01-06 13:40:00,
2013-01-06 08:45:00,42.5,38.0,30.28,ENE,68,0.0,0.0,84,0.00,,---,0.00,VWS V14.01,2013-01-06 13:45:00,
2013-01-06 08:50:00,42.6,37.5,30.28,ENE,68,0.0,0.0,82,0.00,,---,0.00,VWS V14.01,2013-01-06 13:50:00,
2013-01-06 08:55:00,42.8,36.8,30.28,ENE,68,0.0,0.0,79,0.00,,---,0.00,VWS V14.01,2013-01-06 13:55:00,
2013-01-06 09:00:00,43.0,36.0,30.27,ENE,68,0.0,1.0,76,0.00,,---,0.00,VWS V14.01,2013-01-06 14:00:00,
2013-01-06 09:05:00,43.2,36.2,30.27,ENE,68,0.0,0.0,76,0.00,,---,0.00,VWS V14.01,2013-01-06 14:05:00,
2013-01-06 09:10:00,43.3,35.6,30.27,ENE,68,0.0,0.0,74,0.00,,---,0.00,VWS V14.01,2013-01-06 14:10:00,
2013-01-06 09:15:00,43.5,34.4,30.27,ENE,68,0.0,0.0,70,0.00,,---,0.00,VWS V14.01,2013-01-06 14:15:00,
2013-01-06 09:20:00,43.6,35.5,30.27,ENE,68,0.0,1.0,73,0.00,,---,0.00,VWS V14.01,2013-01-06 14:20:00,
2013-01-06 09:25:00,43.7,35.3,30.27,ENE,68,0.0,0.0,72,0.00,,---,0.00,VWS V14.01,2013-01-06 14:25:00,
2013-01-06 09:30:00,43.8,35.0,30.28,ENE,68,0.0,0.0,71,0.00,,---,0.00,VWS V14.01,2013-01-06 14:30:00,
2013-01-06 09:35:00,43.9,35.8,30.28,ENE,68,0.0,0.0,73,0.00,,---,0.00,VWS V14.01,2013-01-06 14:35:00,
2013-01-06 09:40:00,44.0,34.1,30.28,ENE,68,0.0,0.0,68,0.00,,---,0.00,VWS V14.01,2013-01-06 14:40:00,
2013-01-06 09:45:00,44.2,34.3,30.27,ENE,68,0.0,0.0,68,0.00,,---,0.00,VWS V14.01,2013-01-06 14:45:00,
2013-01-06 09:50:00,44.3,35.2,30.27,ENE,68,0.0,0.0,70,0.00,,---,0.00,VWS V14.01,2013-01-06 14:50:00,
2013-01-06 09:55:00,44.6,34.7,30.27,ENE,68,0.0,0.0,68,0.00,,---,0.00,VWS V14.01,2013-01-06 14:55:00,
2013-01-06 10:00:00,44.9,34.2,30.28,ENE,68,0.0,1.0,66,0.00,,---,0.00,VWS V14.01,2013-01-06 15:00:00,
2013-01-06 10:05:00,45.0,34.7,30.28,ENE,68,0.0,0.0,67,0.00,,---,0.00,VWS V14.01,2013-01-06 15:05:00,
2013-01-06 10:10:00,45.1,35.5,30.28,ENE,68,0.0,0.0,69,0.00,,---,0.00,VWS V14.01,2013-01-06 15:10:00,
2013-01-06 10:15:00,45.2,34.9,30.28,ENE,68,0.0,0.0,67,0.00,,---,0.00,VWS V14.01,2013-01-06 15:15:00,
2013-01-06 10:20:00,45.4,34.0,30.28,North,0,0.0,2.0,64,0.00,,---,0.00,VWS V14.01,2013-01-06 15:20:00,
2013-01-06 10:25:00,45.5,34.0,30.28,ENE,68,0.0,1.0,64,0.00,,---,0.00,VWS V14.01,2013-01-06 15:25:00,
2013-01-06 10:30:00,45.7,33.4,30.27,ENE,68,0.0,2.0,62,0.00,,---,0.00,VWS V14.01,2013-01-06 15:30:00,
2013-01-06 10:35:00,45.8,32.7,30.27,SSE,158,0.0,1.0,60,0.00,,---,0.00,VWS V14.01,2013-01-06 15:35:00,
2013-01-06 10:40:00,45.8,33.5,30.27,SSE,158,0.0,1.0,62,0.00,,---,0.00,VWS V14.01,2013-01-06 15:40:00,
2013-01-06 10:45:00,46.1,32.6,30.27,ESE,112,0.0,1.0,59,0.00,,---,0.00,VWS V14.01,2013-01-06 15:45:00,
2013-01-06 10:50:00,46.2,33.1,30.27,ENE,68,0.0,1.0,60,0.00,,---,0.00,VWS V14.01,2013-01-06 15:50:00,
2013-01-06 10:55:00,46.3,33.2,30.27,East,90,0.0,2.0,60,0.00,,---,0.00,VWS V14.01,2013-01-06 15:55:00,
2013-01-06 11:00:00,46.4,33.3,30.26,East,90,0.0,1.0,60,0.00,,---,0.00,VWS V14.01,2013-01-06 16:00:00,
2013-01-06 11:05:00,46.6,33.0,30.26,East,90,0.0,0.0,59,0.00,,---,0.00,VWS V14.01,2013-01-06 16:05:00,
2013-01-06 11:10:00,46.9,33.3,30.26,SE,135,0.0,1.0,59,0.00,,---,0.00,VWS V14.01,2013-01-06 16:10:00,
2013-01-06 11:15:00,47.2,33.2,30.25,SE,135,0.0,1.0,58,0.00,,---,0.00,VWS V14.01,2013-01-06 16:15:00,
2013-01-06 11:20:00,48.0,34.4,30.25,SE,135,0.0,1.0,59,0.00,,---,0.00,VWS V14.01,2013-01-06 16:20:00,
2013-01-06 11:25:00,48.8,32.9,30.25,ENE,68,1.0,5.0,54,0.00,,---,0.00,VWS V14.01,2013-01-06 16:25:00,
2013-01-06 11:30:00,48.8,33.4,30.24,East,90,0.0,2.0,55,0.00,,---,0.00,VWS V14.01,2013-01-06 16:30:00,
2013-01-06 11:35:00,48.7,33.7,30.24,South,180,0.0,2.0,56,0.00,,---,0.00,VWS V14.01,2013-01-06 16:35:00,
2013-01-06 11:40:00,49.1,35.0,30.24,SSE,158,0.0,1.0,58,0.00,,---,0.00,VWS V14.01,2013-01-06 16:40:00,
2013-01-06 11:45:00,49.8,34.8,30.23,East,90,0.0,2.0,56,0.00,,---,0.00,VWS V14.01,2013-01-06 16:45:00,
2013-01-06 11:50:00,50.4,34.9,30.23,WNW,292,0.0,3.0,55,0.00,,---,0.00,VWS V14.01,2013-01-06 16:50:00,
2013-01-06 11:55:00,50.5,34.5,30.23,NW,315,0.0,1.0,54,0.00,,---,0.00,VWS V14.01,2013-01-06 16:55:00,
2013-01-06 12:00:00,50.6,35.0,30.21,North,0,0.0,1.0,55,0.00,,---,0.00,VWS V14.01,2013-01-06 17:00:00,
2013-01-06 12:05:00,50.7,35.1,30.21,NE,45,0.0,1.0,55,0.00,,---,0.00,VWS V14.01,2013-01-06 17:05:00,
2013-01-06 12:10:00,50.6,35.0,30.21,ENE,68,0.0,2.0,55,0.00,,---,0.00,VWS V14.01,2013-01-06 17:10:00,
2013-01-06 12:15:00,50.4,34.4,30.21,East,90,0.0,1.0,54,0.00,,---,0.00,VWS V14.01,2013-01-06 17:15:00,
2013-01-06 12:20:00,50.5,35.4,30.21,ENE,68,0.0,2.0,56,0.00,,---,0.00,VWS V14.01,2013-01-06 17:20:00,
2013-01-06 12:25:00,51.1,34.6,30.21,ENE,68,0.0,0.0,53,0.00,,---,0.00,VWS V14.01,2013-01-06 17:25:00,
2013-01-06 12:30:00,51.6,35.5,30.19,SSE,158,0.0,3.0,54,0.00,,---,0.00,VWS V14.01,2013-01-06 17:30:00,
2013-01-06 12:35:00,51.6,36.0,30.19,SSE,158,0.0,1.0,55,0.00,,---,0.00,VWS V14.01,2013-01-06 17:35:00,
2013-01-06 12:40:00,51.3,37.0,30.19,SE,135,0.0,2.0,58,0.00,,---,0.00,VWS V14.01,2013-01-06 17:40:00,
2013-01-06 12:45:00,50.9,35.3,30.19,SSE,158,0.0,3.0,55,0.00,,---,0.00,VWS V14.01,2013-01-06 17:45:00,
2013-01-06 12:50:00,50.8,35.7,30.19,SSE,158,0.0,1.0,56,0.00,,---,0.00,VWS V14.01,2013-01-06 17:50:00,
2013-01-06 12:55:00,50.7,36.0,30.19,SSE,158,0.0,0.0,57,0.00,,---,0.00,VWS V14.01,2013-01-06 17:55:00,
2013-01-06 13:00:00,50.7,36.5,30.18,SSE,158,0.0,2.0,58,0.00,,---,0.00,VWS V14.01,2013-01-06 18:00:00,
2013-01-06 13:05:00,50.9,36.2,30.18,East,90,0.0,1.0,57,0.00,,---,0.00,VWS V14.01,2013-01-06 18:05:00,
2013-01-06 13:10:00,51.7,37.4,30.18,SSE,158,0.0,1.0,58,0.00,,---,0.00,VWS V14.01,2013-01-06 18:10:00,
2013-01-06 13:15:00,52.7,37.0,30.17,East,90,0.0,3.0,55,0.00,,---,0.00,VWS V14.01,2013-01-06 18:15:00,
2013-01-06 13:20:00,53.2,36.0,30.17,East,90,1.0,3.0,52,0.00,,---,0.00,VWS V14.01,2013-01-06 18:20:00,
2013-01-06 13:25:00,53.2,36.5,30.17,ENE,68,0.0,3.0,53,0.00,,---,0.00,VWS V14.01,2013-01-06 18:25:00,
2013-01-06 13:30:00,53.0,36.3,30.16,SW,225,0.0,2.0,53,0.00,,---,0.00,VWS V14.01,2013-01-06 18:30:00,
2013-01-06 13:35:00,52.9,36.2,30.16,East,90,0.0,2.0,53,0.00,,---,0.00,VWS V14.01,2013-01-06 18:35:00,
2013-01-06 13:40:00,52.9,36.2,30.16,East,90,0.0,2.0,53,0.00,,---,0.00,VWS V14.01,2013-01-06 18:40:00,
2013-01-06 13:45:00,52.8,38.0,30.16,East,90,0.0,1.0,57,0.00,,---,0.00,VWS V14.01,2013-01-06 18:45:00,
2013-01-06 13:50:00,52.8,38.5,30.16,SE,135,0.0,2.0,58,0.00,,---,0.00,VWS V14.01,2013-01-06 18:50:00,
2013-01-06 13:55:00,52.7,36.1,30.16,East,90,0.0,2.0,53,0.00,,---,0.00,VWS V14.01,2013-01-06 18:55:00,
2013-01-06 14:00:00,52.6,36.0,30.15,SSE,158,0.0,1.0,53,0.00,,---,0.00,VWS V14.01,2013-01-06 19:00:00,
2013-01-06 14:05:00,52.5,36.8,30.15,ESE,112,0.0,2.0,55,0.00,,---,0.00,VWS V14.01,2013-01-06 19:05:00,
2013-01-06 14:10:00,52.5,36.3,30.15,ENE,68,1.0,5.0,54,0.00,,---,0.00,VWS V14.01,2013-01-06 19:10:00,
2013-01-06 14:15:00,52.4,36.3,30.15,ENE,68,1.0,5.0,54,0.00,,---,0.00,VWS V14.01,2013-01-06 19:15:00,
2013-01-06 14:20:00,52.3,36.6,30.15,East,90,0.0,2.0,55,0.00,,---,0.00,VWS V14.01,2013-01-06 19:20:00,
2013-01-06 14:25:00,52.3,37.1,30.15,ENE,68,0.0,3.0,56,0.00,,---,0.00,VWS V14.01,2013-01-06 19:25:00,
2013-01-06 14:30:00,52.3,36.6,30.15,East,90,0.0,1.0,55,0.00,,---,0.00,VWS V14.01,2013-01-06 19:30:00,
2013-01-06 14:35:00,52.3,36.6,30.15,SSE,158,0.0,2.0,55,0.00,,---,0.00,VWS V14.01,2013-01-06 19:35:00,
2013-01-06 14:40:00,52.2,37.9,30.15,SSE,158,0.0,1.0,58,0.00,,---,0.00,VWS V14.01,2013-01-06 19:40:00,
2013-01-06 14:45:00,52.2,38.3,30.15,SE,135,0.0,1.0,59,0.00,,---,0.00,VWS V14.01,2013-01-06 19:45:00,
2013-01-06 14:50:00,52.3,36.6,30.15,NW,315,0.0,2.0,55,0.00,,---,0.00,VWS V14.01,2013-01-06 19:50:00,
2013-01-06 14:55:00,52.2,37.4,30.15,South,180,0.0,1.0,57,0.00,,---,0.00,VWS V14.01,2013-01-06 19:55:00,
2013-01-06 15:00:00,52.2,37.0,30.14,ENE,68,0.0,3.0,56,0.00,,---,0.00,VWS V14.01,2013-01-06 20:00:00,
2013-01-06 15:05:00,52.2,37.0,30.14,ENE,68,0.0,0.0,56,0.00,,---,0.00,VWS V14.01,2013-01-06 20:05:00,
2013-01-06 15:10:00,52.3,38.0,30.14,ENE,68,0.0,0.0,58,0.00,,---,0.00,VWS V14.01,2013-01-06 20:10:00,
2013-01-06 15:15:00,52.3,37.5,30.14,East,90,0.0,1.0,57,0.00,,---,0.00,VWS V14.01,2013-01-06 20:15:00,
2013-01-06 15:20:00,52.4,37.6,30.14,East,90,0.0,0.0,57,0.00,,---,0.00,VWS V14.01,2013-01-06 20:20:00,
2013-01-06 15:25:00,52.5,37.3,30.14,SSE,158,0.0,3.0,56,0.00,,---,0.00,VWS V14.01,2013-01-06 20:25:00,
2013-01-06 15:30:00,52.3,37.5,30.14,East,90,0.0,5.0,57,0.00,,---,0.00,VWS V14.01,2013-01-06 20:30:00,
2013-01-06 15:35:00,52.3,38.0,30.14,East,90,0.0,0.0,58,0.00,,---,0.00,VWS V14.01,2013-01-06 20:35:00,
2013-01-06 15:40:00,52.3,37.5,30.14,SSE,158,0.0,2.0,57,0.00,,---,0.00,VWS V14.01,2013-01-06 20:40:00,
2013-01-06 15:45:00,52.3,38.0,30.14,SE,135,0.0,1.0,58,0.00,,---,0.00,VWS V14.01,2013-01-06 20:45:00,
2013-01-06 15:50:00,52.3,38.4,30.14,SE,135,0.0,1.0,59,0.00,,---,0.00,VWS V14.01,2013-01-06 20:50:00,
2013-01-06 15:55:00,52.3,38.0,30.14,SE,135,0.0,0.0,58,0.00,,---,0.00,VWS V14.01,2013-01-06 20:55:00,
2013-01-06 16:00:00,52.5,38.6,30.13,SSE,158,0.0,1.0,59,0.00,,---,0.00,VWS V14.01,2013-01-06 21:00:00,
2013-01-06 16:05:00,52.3,38.0,30.13,SSE,158,0.0,0.0,58,0.00,,---,0.00,VWS V14.01,2013-01-06 21:05:00,
2013-01-06 16:10:00,52.3,38.4,30.13,SSE,158,0.0,0.0,59,0.00,,---,0.00,VWS V14.01,2013-01-06 21:10:00,
2013-01-06 16:15:00,52.3,38.4,30.13,SSE,158,0.0,0.0,59,0.00,,---,0.00,VWS V14.01,2013-01-06 21:15:00,
2013-01-06 16:20:00,52.3,38.4,30.13,SSE,158,0.0,0.0,59,0.00,,---,0.00,VWS V14.01,2013-01-06 21:20:00,
2013-01-06 16:25:00,52.2,37.9,30.13,South,180,0.0,1.0,58,0.00,,---,0.00,VWS V14.01,2013-01-06 21:25:00,
2013-01-06 16:30:00,52.0,38.1,30.14,South,180,0.0,1.0,59,0.00,,---,0.00,VWS V14.01,2013-01-06 21:30:00,
2013-01-06 16:35:00,51.8,38.4,30.14,South,180,0.0,1.0,60,0.00,,---,0.00,VWS V14.01,2013-01-06 21:35:00,
2013-01-06 16:40:00,51.7,38.7,30.14,SE,135,0.0,1.0,61,0.00,,---,0.00,VWS V14.01,2013-01-06 21:40:00,
2013-01-06 16:45:00,51.6,38.2,30.14,SE,135,0.0,0.0,60,0.00,,---,0.00,VWS V14.01,2013-01-06 21:45:00,
2013-01-06 16:50:00,51.4,38.8,30.14,SE,135,0.0,0.0,62,0.00,,---,0.00,VWS V14.01,2013-01-06 21:50:00,
2013-01-06 16:55:00,51.4,38.4,30.14,SE,135,0.0,0.0,61,0.00,,---,0.00,VWS V14.01,2013-01-06 21:55:00,
2013-01-06 17:00:00,51.3,38.3,30.14,SE,135,0.0,1.0,61,0.00,,---,0.00,VWS V14.01,2013-01-06 22:00:00,
2013-01-06 17:05:00,51.2,38.2,30.14,ESE,112,0.0,1.0,61,0.00,,---,0.00,VWS V14.01,2013-01-06 22:05:00,
2013-01-06 17:10:00,51.1,38.5,30.14,ESE,112,0.0,0.0,62,0.00,,---,0.00,VWS V14.01,2013-01-06 22:10:00,
2013-01-06 17:15:00,50.9,38.8,30.15,ESE,112,0.0,0.0,63,0.00,,---,0.00,VWS V14.01,2013-01-06 22:15:00,
2013-01-06 17:20:00,50.6,38.9,30.15,ESE,112,0.0,0.0,64,0.00,,---,0.00,VWS V14.01,2013-01-06 22:20:00,
2013-01-06 17:25:00,50.2,38.9,30.15,ESE,112,0.0,0.0,65,0.00,,---,0.00,VWS V14.01,2013-01-06 22:25:00,
2013-01-06 17:30:00,49.8,39.3,30.16,ESE,112,0.0,0.0,67,0.00,,---,0.00,VWS V14.01,2013-01-06 22:30:00,
2013-01-06 17:35:00,49.4,38.9,30.16,ESE,112,0.0,0.0,67,0.00,,---,0.00,VWS V14.01,2013-01-06 22:35:00,
2013-01-06 17:40:00,49.1,39.8,30.16,ESE,112,0.0,0.0,70,0.00,,---,0.00,VWS V14.01,2013-01-06 22:40:00,
2013-01-06 17:45:00,48.5,39.9,30.16,ESE,112,0.0,0.0,72,0.00,,---,0.00,VWS V14.01,2013-01-06 22:45:00,
2013-01-06 17:50:00,47.8,39.6,30.16,ESE,112,0.0,0.0,73,0.00,,---,0.00,VWS V14.01,2013-01-06 22:50:00,
2013-01-06 17:55:00,47.2,39.3,30.16,ESE,112,0.0,0.0,74,0.00,,---,0.00,VWS V14.01,2013-01-06 22:55:00,
2013-01-06 18:00:00,46.7,38.9,30.16,ESE,112,0.0,0.0,74,0.00,,---,0.00,VWS V14.01,2013-01-06 23:00:00,
2013-01-06 18:05:00,46.3,39.2,30.16,ESE,112,0.0,0.0,76,0.00,,---,0.00,VWS V14.01,2013-01-06 23:05:00,
2013-01-06 18:10:00,46.0,39.5,30.16,ESE,112,0.0,0.0,78,0.00,,---,0.00,VWS V14.01,2013-01-06 23:10:00,
2013-01-06 18:15:00,45.7,39.6,30.17,ESE,112,0.0,0.0,79,0.00,,---,0.00,VWS V14.01,2013-01-06 23:15:00,
2013-01-06 18:20:00,45.2,39.1,30.17,ESE,112,0.0,0.0,79,0.00,,---,0.00,VWS V14.01,2013-01-06 23:20:00,
2013-01-06 18:25:00,45.0,39.2,30.17,ESE,112,0.0,0.0,80,0.00,,---,0.00,VWS V14.01,2013-01-06 23:25:00,
2013-01-06 18:30:00,44.6,39.5,30.17,ESE,112,0.0,0.0,82,0.00,,---,0.00,VWS V14.01,2013-01-06 23:30:00,
2013-01-06 18:35:00,44.3,39.2,30.17,ESE,112,0.0,0.0,82,0.00,,---,0.00,VWS V14.01,2013-01-06 23:35:00,
2013-01-06 18:40:00,44.0,39.5,30.17,ESE,112,0.0,0.0,84,0.00,,---,0.00,VWS V14.01,2013-01-06 23:40:00,
2013-01-06 18:45:00,43.5,39.6,30.17,ESE,112,0.0,0.0,86,0.00,,---,0.00,VWS V14.01,2013-01-06 23:45:00,
2013-01-06 18:50:00,43.2,40.2,30.17,ESE,112,0.0,0.0,89,0.00,,---,0.00,VWS V14.01,2013-01-06 23:50:00,
2013-01-06 18:55:00,42.9,39.9,30.17,ESE,112,0.0,0.0,89,0.00,,---,0.00,VWS V14.01,2013-01-06 23:55:00,
2013-01-06 19:00:00,42.6,39.6,30.18,ESE,112,0.0,0.0,89,0.00,,---,0.00,VWS V14.01,2013-01-07 00:00:00,
2013-01-06 19:05:00,42.4,39.4,30.18,ESE,112,0.0,0.0,89,0.00,,---,0.00,VWS V14.01,2013-01-07 00:05:00,
2013-01-06 19:10:00,42.1,39.1,30.18,ESE,112,0.0,0.0,89,0.00,,---,0.00,VWS V14.01,2013-01-07 00:10:00,
2013-01-06 19:15:00,41.8,39.1,30.19,ESE,112,0.0,0.0,90,0.00,,---,0.00,VWS V14.01,2013-01-07 00:15:00,
2013-01-06 19:20:00,41.5,39.1,30.19,ESE,112,0.0,0.0,91,0.00,,---,0.00,VWS V14.01,2013-01-07 00:20:00,
2013-01-06 19:25:00,41.3,38.9,30.19,ESE,112,0.0,0.0,91,0.00,,---,0.00,VWS V14.01,2013-01-07 00:25:00,
2013-01-06 19:30:00,41.1,38.7,30.19,ESE,112,0.0,0.0,91,0.00,,---,0.00,VWS V14.01,2013-01-07 00:30:00,
2013-01-06 19:35:00,40.8,38.4,30.19,ESE,112,0.0,0.0,91,0.00,,---,0.00,VWS V14.01,2013-01-07 00:35:00,
2013-01-06 19:40:00,40.5,38.1,30.19,ESE,112,0.0,0.0,91,0.00,,---,0.00,VWS V14.01,2013-01-07 00:40:00,
2013-01-06 19:45:00,40.2,37.8,30.20,ESE,112,0.0,0.0,91,0.00,,---,0.00,VWS V14.01,2013-01-07 00:45:00,
2013-01-06 19:50:00,40.0,37.6,30.20,ESE,112,0.0,0.0,91,0.00,,---,0.00,VWS V14.01,2013-01-07 00:50:00,
2013-01-06 19:55:00,39.8,37.4,30.20,ESE,112,0.0,0.0,91,0.00,,---,0.00,VWS V14.01,2013-01-07 00:55:00,
2013-01-06 20:00:00,39.6,37.2,30.20,ESE,112,0.0,0.0,91,0.00,,---,0.00,VWS V14.01,2013-01-07 01:00:00,
2013-01-06 20:05:00,39.4,37.0,30.20,ESE,112,0.0,0.0,91,0.00,,---,0.00,VWS V14.01,2013-01-07 01:05:00,
2013-01-06 20:10:00,39.2,36.8,30.20,ESE,112,0.0,0.0,91,0.00,,---,0.00,VWS V14.01,2013-01-07 01:10:00,
2013-01-06 20:15:00,39.1,36.7,30.21,ESE,112,0.0,0.0,91,0.00,,---,0.00,VWS V14.01,2013-01-07 01:15:00,
2013-01-06 20:20:00,38.9,36.5,30.21,ESE,112,0.0,0.0,91,0.00,,---,0.00,VWS V14.01,2013-01-07 01:20:00,
2013-01-06 20:25:00,38.7,36.3,30.21,ESE,112,0.0,0.0,91,0.00,,---,0.00,VWS V14.01,2013-01-07 01:25:00,
2013-01-06 20:30:00,38.6,36.2,30.21,ESE,112,0.0,0.0,91,0.00,,---,0.00,VWS V14.01,2013-01-07 01:30:00,
2013-01-06 20:35:00,38.5,36.1,30.21,ESE,112,0.0,0.0,91,0.00,,---,0.00,VWS V14.01,2013-01-07 01:35:00,
2013-01-06 20:40:00,38.5,36.1,30.21,ESE,112,0.0,0.0,91,0.00,,---,0.00,VWS V14.01,2013-01-07 01:40:00,
2013-01-06 20:45:00,38.3,35.9,30.22,ESE,112,0.0,0.0,91,0.00,,---,0.00,VWS V14.01,2013-01-07 01:45:00,
2013-01-06 20:50:00,38.2,35.8,30.22,ESE,112,0.0,0.0,91,0.00,,---,0.00,VWS V14.01,2013-01-07 01:50:00,
2013-01-06 20:55:00,38.0,35.6,30.22,ESE,112,0.0,4.0,91,0.00,,---,0.00,VWS V14.01,2013-01-07 01:55:00,
2013-01-06 21:00:00,38.0,35.6,30.24,NW,315,0.0,5.0,91,0.00,,---,0.00,VWS V14.01,2013-01-07 02:00:00,
2013-01-06 21:05:00,38.3,35.9,30.24,WNW,292,0.0,1.0,91,0.00,,---,0.00,VWS V14.01,2013-01-07 02:05:00,
2013-01-06 21:10:00,38.7,36.3,30.24,WNW,292,0.0,0.0,91,0.00,,---,0.00,VWS V14.01,2013-01-07 02:10:00,
2013-01-06 21:15:00,39.2,36.8,30.24,WNW,292,0.0,0.0,91,0.00,,---,0.00,VWS V14.01,2013-01-07 02:15:00,
2013-01-06 21:20:00,39.7,37.3,30.24,WNW,292,0.0,0.0,91,0.00,,---,0.00,VWS V14.01,2013-01-07 02:20:00,
2013-01-06 21:25:00,40.1,37.7,30.24,WNW,292,0.0,0.0,91,0.00,,---,0.00,VWS V14.01,2013-01-07 02:25:00,
2013-01-06 21:30:00,40.4,38.0,30.25,WNW,292,0.0,1.0,91,0.00,,---,0.00,VWS V14.01,2013-01-07 02:30:00,
2013-01-06 21:35:00,41.1,37.8,30.25,WNW,292,0.0,1.0,88,0.00,,---,0.00,VWS V14.01,2013-01-07 02:35:00,
2013-01-06 21:40:00,42.0,34.7,30.25,NW,315,0.0,1.0,75,0.00,,---,0.00,VWS V14.01,2013-01-07 02:40:00,
2013-01-06 21:45:00,43.1,30.6,30.25,WNW,292,1.0,3.0,61,0.00,,---,0.00,VWS V14.01,2013-01-07 02:45:00,
2013-01-06 21:50:00,44.0,31.8,30.25,NW,315,0.0,2.0,62,0.00,,---,0.00,VWS V14.01,2013-01-07 02:50:00,
2013-01-06 21:55:00,44.4,29.3,30.25,NW,315,0.0,2.0,55,0.00,,---,0.00,VWS V14.01,2013-01-07 02:55:00,
2013-01-06 22:00:00,44.7,29.5,30.25,NW,315,0.0,1.0,55,0.00,,---,0.00,VWS V14.01,2013-01-07 03:00:00,
2013-01-06 22:05:00,44.8,28.7,30.25,NW,315,0.0,1.0,53,0.00,,---,0.00,VWS V14.01,2013-01-07 03:05:00,
2013-01-06 22:10:00,44.9,27.4,30.25,NW,315,0.0,1.0,50,0.00,,---,0.00,VWS V14.01,2013-01-07 03:10:00,
2013-01-06 22:15:00,45.1,29.5,30.26,NW,315,0.0,1.0,54,0.00,,---,0.00,VWS V14.01,2013-01-07 03:15:00,
2013-01-06 22:20:00,45.1,29.5,30.26,NW,315,0.0,0.0,54,0.00,,---,0.00,VWS V14.01,2013-01-07 03:20:00,
2013-01-06 22:25:00,45.1,29.5,30.26,NW,315,0.0,0.0,54,0.00,,---,0.00,VWS V14.01,2013-01-07 03:25:00,
2013-01-06 22:30:00,45.0,29.4,30.27,NW,315,0.0,0.0,54,0.00,,---,0.00,VWS V14.01,2013-01-07 03:30:00,
2013-01-06 22:35:00,44.9,29.3,30.27,NW,315,0.0,0.0,54,0.00,,---,0.00,VWS V14.01,2013-01-07 03:35:00,
2013-01-06 22:40:00,44.8,30.1,30.27,NW,315,0.0,0.0,56,0.00,,---,0.00,VWS V14.01,2013-01-07 03:40:00,
2013-01-06 22:45:00,44.7,29.5,30.27,NW,315,0.0,0.0,55,0.00,,---,0.00,VWS V14.01,2013-01-07 03:45:00,
2013-01-06 22:50:00,44.6,29.9,30.27,NW,315,0.0,0.0,56,0.00,,---,0.00,VWS V14.01,2013-01-07 03:50:00,
2013-01-06 22:55:00,44.4,28.8,30.27,NW,315,0.0,0.0,54,0.00,,---,0.00,VWS V14.01,2013-01-07 03:55:00,
2013-01-06 23:00:00,44.3,29.6,30.27,NW,315,0.0,0.0,56,0.00,,---,0.00,VWS V14.01,2013-01-07 04:00:00,
2013-01-06 23:05:00,44.2,29.1,30.27,NW,315,0.0,1.0,55,0.00,,---,0.00,VWS V14.01,2013-01-07 04:05:00,
2013-01-06 23:10:00,44.2,31.2,30.27,NW,315,0.0,0.0,60,0.00,,---,0.00,VWS V14.01,2013-01-07 04:10:00,
2013-01-06 23:15:00,44.0,30.2,30.28,NW,315,0.0,0.0,58,0.00,,---,0.00,VWS V14.01,2013-01-07 04:15:00,
2013-01-06 23:20:00,43.8,30.4,30.28,NW,315,0.0,0.0,59,0.00,,---,0.00,VWS V14.01,2013-01-07 04:20:00,
2013-01-06 23:25:00,43.7,30.3,30.28,NW,315,0.0,0.0,59,0.00,,---,0.00,VWS V14.01,2013-01-07 04:25:00,
2013-01-06 23:30:00,43.5,30.5,30.28,NW,315,0.0,1.0,60,0.00,,---,0.00,VWS V14.01,2013-01-07 04:30:00,
2013-01-06 23:35:00,43.4,30.5,30.28,NW,315,0.0,0.0,60,0.00,,---,0.00,VWS V14.01,2013-01-07 04:35:00,
2013-01-06 23:40:00,43.2,30.3,30.28,NW,315,0.0,0.0,60,0.00,,---,0.00,VWS V14.01,2013-01-07 04:40:00,
2013-01-06 23:45:00,43.1,31.0,30.29,NW,315,0.0,0.0,62,0.00,,---,0.00,VWS V14.01,2013-01-07 04:45:00,
2013-01-06 23:50:00,42.9,31.2,30.29,NW,315,0.0,0.0,63,0.00,,---,0.00,VWS V14.01,2013-01-07 04:50:00,
2013-01-06 23:55:00,42.7,31.0,30.29,NW,315,0.0,0.0,63,0.00,,---,0.00,VWS V14.01,2013-01-07 04:55:00,